Home   Weather   Khartoum   Past weeks

Flag for Sudan Past Weather in Khartoum, Sudan — Yesterday and Last 2 Weeks

Now
95 °F

Extremely hot.


Feels Like: 97 °F
Forecast: 86 / 99 °F
Wind: 7 mph from South

Location: Khartoum Airport

Current Time: Aug 18, 2017 at 2:00:02 pm

Latest Report: Aug 18, 2017 at 1:30 pm


Visibility: N/A

Pressure: 29.86 "Hg

Humidity: 36%

Dew Point: 64 °F

Location of KhartoumLocation

Past Weather in Khartoum — Graph

°F

Khartoum Temperature Yesterday

Maximum temperature yesterday: 93 °F (at 4:00 pm)
Minimum temperature yesterday: 72 °F (at 7:00 am)
Average temperature yesterday: 85 °F

High & Low Weather Summary for the Past Weeks

 TemperatureHumidityPressure
High104 °F (Aug 3, 4:00 pm)94% (Aug 3, 9:30 pm)30.01 "Hg (Aug 3, 9:30 pm)
Low72 °F (Aug 3, 9:30 pm)14% (Aug 6, 3:30 pm)29.68 "Hg (Aug 6, 5:30 pm)
Average88 °F48%29.81 "Hg
* Reported Aug 3 12:00 pm — Aug 18 12:00 pm, Khartoum. Weather by CustomWeather, © 2017

Note: Actual official high and low records may vary slightly from our data, if they occured in-between our weather recording intervals... More about our weather records

Advertising

Khartoum Weather History for the Previous 24 Hours

Scroll right to see more
 ConditionsComfort  
Time TempWeatherWind HumidityBarometerVisibility
12:00 pm
Fri, Aug 18
91 °FHot.8 mph41%29.89 "HgN/A
11:30 am91 °FSunny.9 mph44%29.92 "Hg10 mi
11:00 am90 °FSunny.8 mph46%29.92 "Hg10 mi
10:30 am90 °FSunny.7 mph46%29.92 "Hg10 mi
10:00 am88 °FSunny.6 mph49%29.92 "Hg10 mi
9:30 am86 °FSunny.6 mph55%29.92 "Hg10 mi
9:00 am86 °FSunny.6 mph52%29.89 "Hg10 mi
8:30 am84 °FSunny.8 mph58%29.89 "Hg10 mi
8:00 am82 °FSunny.7 mph66%29.89 "Hg10 mi
7:30 am82 °FSunny.6 mph74%29.86 "Hg10 mi
7:00 am81 °FSunny.5 mph70%29.86 "Hg10 mi
6:30 am81 °FClear.6 mph70%29.86 "Hg10 mi
6:00 am81 °FClear.7 mph70%29.86 "Hg10 mi
5:30 am81 °FClear.6 mph70%29.86 "Hg10 mi
5:00 am82 °FClear.6 mph62%29.83 "Hg10 mi
4:30 am82 °FClear.7 mph66%29.83 "Hg10 mi
4:00 am82 °FClear.6 mph66%29.83 "Hg10 mi
3:30 am82 °FClear.5 mph66%29.83 "Hg10 mi
3:00 am84 °FClear.5 mph62%29.83 "Hg10 mi
2:30 am84 °FClear.6 mph58%29.86 "Hg10 mi
2:00 am84 °FClear.5 mph58%29.86 "Hg10 mi
1:30 am84 °FClear.6 mph58%29.86 "Hg10 mi
1:00 am86 °FClear.5 mph55%29.86 "Hg10 mi
12:30 am84 °FClear.3 mph62%29.86 "Hg10 mi
12:00 am86 °FClear.3 mph55%29.86 "Hg10 mi
11:30 pm
Thu, Aug 17
86 °FClear.3 mph55%29.86 "Hg10 mi
11:00 pm86 °FClear.7 mph55%29.89 "Hg10 mi
10:30 pm86 °FPassing clouds.7 mph52%29.86 "HgN/A
10:00 pm86 °FPassing clouds.8 mph49%29.86 "HgN/A
9:30 pm88 °FPassing clouds.10 mph49%29.86 "HgN/A
9:00 pm88 °FPassing clouds.13 mph49%29.86 "HgN/A
8:30 pm88 °FPassing clouds.13 mph49%29.83 "HgN/A
8:00 pm90 °FPassing clouds.13 mph43%29.83 "Hg5 mi
7:30 pm90 °FClear.10 mph43%29.80 "Hg10 mi
7:00 pm90 °FSunny.13 mph43%29.80 "Hg10 mi
6:00 pm91 °FPassing clouds.12 mph41%29.77 "HgN/A
5:30 pm91 °FPassing clouds.12 mph41%29.77 "HgN/A
5:00 pm91 °FPassing clouds.13 mph41%29.77 "HgN/A
4:30 pm91 °FPassing clouds.14 mph41%29.77 "HgN/A
4:00 pm93 °FPassing clouds.13 mph41%29.77 "HgN/A
3:30 pm91 °FPassing clouds.16 mph46%29.80 "HgN/A
3:00 pm91 °FPassing clouds.14 mph46%29.80 "HgN/A
2:30 pm91 °FPassing clouds.13 mph46%29.80 "HgN/A
2:00 pm91 °FPassing clouds.13 mph46%29.83 "HgN/A
Weather by CustomWeather, © 2017

See weather overviewHow to use our weather pages